Weather History for KGON - January, 2014

Change the Weather History Date:

Wednesday, January 15, 2014

  Actual Average Record
Temperature  
Mean Temperature 48 °F -  
Max Temperature 64 °F 35 °F 64 °F (2014)
Min Temperature 33 °F 19 °F -5 °F (1988)
Degree Days  
Heating Degree Days 16    
Moisture  
Dew Point 36 °F    
Average Humidity 86    
Maximum Humidity 100    
Minimum Humidity 40    
Precipitation  
Precipitation 0.00 in - - ()
Sea Level Pressure  
Sea Level Pressure 29.94 in    
Wind  
Wind Speed 3 mph (NNW)    
Max Wind Speed 8 mph    
Max Gust Speed -    
Visibility 3 miles    
Events Fog    
Averages and records for this station are not official NWS values.
T = Trace of Precipitation, MM = Missing Value Source: NWS Daily Summary

Daily Weather History Graph

Daily Weather History Graph

Search for Another Location

Airport or City:

Trip Planner

Search our weather history database for the weather conditions in past years. The results will help you decide how hot, cold, wet, or windy it might be!

Date:

Astronomy

Jan. 15, 2014 Rise Set
Actual Time 7:11 AM EST 4:43 PM EST
Civil Twilight 6:41 AM EST 5:14 PM EST
Nautical Twilight 6:07 AM EST 5:48 PM EST
Astronomical Twilight 5:34 AM EST 6:21 PM EST
Moon 4:39 PM EST (1/15) 6:25 AM EST (1/15)
Length of Visible Light 10h 32m
Length of Day
9h 32m
Full, 100% of the Moon is Illuminated
Jan 15
Full
Jan 15
Full
Jan 24
Last Quarter
Jan 30
New
Feb 6
First Quarter

Hourly Weather History & Observations

Time (EST) Temp. Windchill Dew Point Humidity Pressure Visibility Wind Dir Wind Speed Gust Speed Precip Events Conditions
12:56 AM 42.1 °F 37.1 °F 39.0 °F 89% 29.82 in 10.0 mi NW 8.1 mph - N/A   Clear
1:56 AM 39.0 °F 35.7 °F 37.0 °F 93% 29.87 in 10.0 mi WNW 4.6 mph - N/A   Clear
2:56 AM 37.9 °F 34.4 °F 35.1 °F 89% 29.89 in 9.0 mi NW 4.6 mph - N/A   Clear
3:56 AM 34.0 °F 29.8 °F 33.1 °F 96% 29.93 in 4.0 mi SSE 4.6 mph - N/A   Clear
4:19 AM 33.8 °F 30.8 °F 33.8 °F 100% 29.94 in 1.8 mi WSW 3.5 mph - N/A   Clear
4:28 AM 33.8 °F 30.8 °F 32.0 °F 93% 29.95 in 0.5 mi WSW 3.5 mph - N/A Fog Fog
4:36 AM 33.8 °F 28.6 °F 33.8 °F 100% 29.96 in 2.0 mi SW 5.8 mph - N/A   Scattered Clouds
4:41 AM 35.6 °F 29.9 °F 33.8 °F 93% 29.96 in 5.0 mi SW 6.9 mph - N/A   Mostly Cloudy
4:56 AM 36.0 °F 31.1 °F 35.1 °F 97% 29.97 in 6.0 mi WSW 5.8 mph - N/A   Mostly Cloudy
5:17 AM 33.8 °F 30.8 °F 32.0 °F 93% 29.97 in 3.0 mi NE 3.5 mph - N/A   Scattered Clouds
5:25 AM 33.8 °F - 32.0 °F 93% 29.97 in 3.0 mi Calm Calm - N/A   Mostly Cloudy
5:48 AM 33.8 °F - 33.8 °F 100% 29.97 in 2.0 mi Calm Calm - N/A   Overcast
5:54 AM 33.8 °F - 33.8 °F 100% 29.97 in 1.0 mi Calm Calm - N/A   Mist
5:56 AM 33.1 °F 30.0 °F 33.1 °F 100% 29.97 in 0.8 mi NE 3.5 mph - N/A   Mist
6:07 AM 33.8 °F - 33.8 °F 100% 29.97 in 0.2 mi Calm Calm - N/A Fog Fog
6:56 AM 33.1 °F - 33.1 °F 100% 29.98 in 0.2 mi Calm Calm - N/A Fog Fog
7:56 AM 35.1 °F 32.2 °F 35.1 °F 100% 30.01 in 0.2 mi North 3.5 mph - N/A Fog Fog
8:25 AM 35.6 °F 32.8 °F 35.6 °F 100% 30.02 in 0.2 mi NE 3.5 mph - N/A Fog Fog
8:56 AM 39.9 °F - 36.0 °F 86% 30.03 in 0.2 mi Calm Calm - N/A Fog Fog
9:27 AM 42.8 °F - 37.4 °F 81% 30.03 in 0.2 mi Calm Calm - N/A Fog Fog
9:56 AM 48.0 °F - 39.0 °F 71% 30.04 in 0.2 mi Calm Calm - N/A   Haze
10:44 AM 44.6 °F - 39.2 °F 81% 30.03 in 0.2 mi Calm Calm - N/A   Haze
10:49 AM 46.4 °F - 39.2 °F 76% 30.03 in 0.2 mi Calm Calm - N/A   Haze
10:56 AM 48.9 °F - 41.0 °F 74% 30.03 in 0.2 mi Calm Calm - N/A   Haze
10:59 AM 48.2 °F - 41.0 °F 76% 30.03 in 6.0 mi Calm Calm - N/A   Haze
11:56 AM 59.0 °F - 39.9 °F 49% 29.99 in 6.0 mi South 3.5 mph - N/A   Haze
12:56 PM 63.0 °F - 41.0 °F 45% 29.98 in 6.0 mi South 3.5 mph - N/A   Haze
1:56 PM 64.0 °F - 39.0 °F 40% 29.97 in 7.0 mi SSE 6.9 mph - N/A   Clear
2:56 PM 61.0 °F - 39.9 °F 46% 29.96 in 7.0 mi SSE 4.6 mph - N/A   Clear
3:56 PM 59.0 °F - 39.9 °F 49% 29.95 in 7.0 mi ESE 3.5 mph - N/A   Clear
4:56 PM 60.1 °F - 39.0 °F 46% 29.96 in 6.0 mi ESE 5.8 mph - N/A   Haze
5:56 PM 44.1 °F - 39.0 °F 82% 29.95 in 7.0 mi Calm Calm - N/A   Clear
6:56 PM 39.9 °F - 36.0 °F 86% 29.94 in 3.0 mi Calm Calm - N/A   Clear
7:10 PM 37.4 °F 34.9 °F 35.6 °F 93% 29.94 in 1.8 mi North 3.5 mph - N/A   Clear
7:37 PM 39.2 °F 37.0 °F 35.6 °F 87% 29.93 in 3.0 mi NE 3.5 mph - N/A   Haze
7:54 PM 37.4 °F 34.9 °F 33.8 °F 87% 29.92 in 1.8 mi NNW 3.5 mph - N/A   Clear
7:56 PM 37.9 °F 35.5 °F 34.0 °F 86% 29.92 in 1.0 mi NNW 3.5 mph - N/A   Clear
8:56 PM 37.9 °F 35.5 °F 34.0 °F 86% 29.91 in 1.5 mi NNE 3.5 mph - N/A   Clear
9:03 PM 37.4 °F 34.9 °F 33.8 °F 87% 29.91 in 3.0 mi North 3.5 mph - N/A   Clear
9:10 PM 39.2 °F 37.0 °F 33.8 °F 81% 29.90 in 1.8 mi North 3.5 mph - N/A   Haze
9:56 PM 37.0 °F - 34.0 °F 89% 29.90 in 2.5 mi Calm Calm - N/A   Clear
10:04 PM 37.4 °F - 33.8 °F 87% 29.90 in 3.0 mi Calm Calm - N/A   Clear
10:06 PM 37.4 °F 34.9 °F 33.8 °F 87% 29.90 in 1.8 mi NNW 3.5 mph - N/A   Haze
10:09 PM 35.6 °F 32.8 °F 33.8 °F 93% 29.89 in 0.8 mi NNW 3.5 mph - N/A   Mist
10:26 PM 33.8 °F - 33.8 °F 100% 29.89 in 1.0 mi Calm Calm - N/A   Mostly Cloudy
10:32 PM 35.6 °F - 33.8 °F 93% 29.88 in 3.0 mi Calm Calm - N/A   Mostly Cloudy
10:56 PM 34.0 °F - 34.0 °F 100% 29.89 in 4.0 mi Calm Calm - N/A   Mostly Cloudy
11:03 PM 35.6 °F - 33.8 °F 93% 29.88 in 4.0 mi Calm Calm - N/A   Mostly Cloudy
11:32 PM 35.6 °F 32.8 °F 33.8 °F 93% 29.88 in 2.5 mi North 3.5 mph - N/A   Overcast
11:44 PM 35.6 °F - 35.6 °F 100% 29.88 in 3.0 mi Calm Calm - N/A   Overcast
11:54 PM 35.6 °F - 33.8 °F 93% 29.88 in 1.8 mi Calm Calm - N/A   Overcast
11:56 PM 36.0 °F - 34.0 °F 93% 29.88 in 1.2 mi Calm Calm - N/A   Overcast